Temperature
9 11 11 11 10 10 10 10 11 11 11 10 10 11 12 11 10 10 10 9 9 9 8 8 8 8 8 8 9 9 9 9 9 10 10 9 9 10 10 10 10 10 10 11
11 11 11 10 10 9 10 10 11 11 10 10 10 11 12 11 11 10 10 9 9 8 8 8 8 8 8 8 8 8 8 9 9 9 9 9 9 9 9 10 10 10 10 10
12 11 10 10 10 10 10 10 10 10 10 10 10 12 12 12 11 10 9 9 9 8 8 8 8 8 8 8 8 8 8 8 8 9 9 9 9 9 9 9 9 10 10 10
11 10 9 10 10 10 11 10 9 9 10 11 10 11 13 12 12 11 10 9 9 8 8 8 8 8 8 8 8 8 8 8 8 8 8 8 9 9 9 9 9 9 9 9
11 9 9 10 10 9 10 9 9 9 10 10 10 10 12 12 11 11 11 10 9 8 8 8 8 8 8 8 8 8 8 8 8 8 8 8 8 8 9 9 9 9 9 9
10 9 9 10 9 9 9 9 9 9 10 10 10 10 12 12 11 11 11 9 9 8 8 8 8 8 8 8 8 8 8 8 8 8 8 8 8 8 8 8 8 8 8 8
11 10 9 8 9 9 9 11 11 11 12 12 10 10 11 11 11 10 10 9 8 8 7 8 7 8 8 8 8 8 8 8 8 8 8 8 8 8 8 8 8 8 8 8
11 11 10 9 9 10 10 10 11 11 12 12 10 10 12 11 10 9 9 8 8 8 8 8 8 8 8 8 8 8 8 8 8 8 8 8 8 8 8 8 8 8 8 8
11 11 9 8 8 9 10 10 10 10 10 10 12 12 12 11 10 9 9 8 8 7 7 7 7 7 8 8 8 8 8 8 8 8 8 8 8 8 8 8 8 8 8 8
10 10 9 8 8 8 9 9 9 10 10 11 12 12 12 11 10 10 9 8 8 7 7 7 7 7 7 8 8 8 8 8 8 8 8 8 8 8 8 8 8 8 8 7
9 9 9 9 9 9 9 9 9 10 10 11 11 12 11 10 10 9 9 8 7 7 7 7 7 7 7 7 8 8 8 8 8 8 8 7 7 7 7 7 7 7 7 7
8 9 10 10 8 8 9 9 10 10 10 10 11 12 10 9 9 8 8 7 7 7 6 7 7 7 7 7 7 7 8 8 8 7 7 7 7 7 7 7 7 7 7 7
7 8 9 10 9 8 8 8 9 9 9 9 10 12 9 9 8 8 7 7 7 6 6 6 6 7 7 7 7 7 7 7 7 7 7 7 7 7 7 7 7 7 7 6
7 8 9 11 11 9 8 8 8 8 8 9 10 11 10 9 9 8 7 7 6 6 6 6 6 6 6 7 7 7 7 7 7 7 7 7 7 7 7 7 6 6 6 6
7 8 8 8 8 7 8 8 7 7 9 9 10 9 10 10 9 8 7 6 6 6 6 6 6 6 6 6 6 6 6 6 6 6 7 6 6 6 6 6 6 6 6 6
6 7 6 6 7 7 7 7 7 7 8 8 9 9 10 9 7 7 7 6 6 6 6 6 6 6 6 6 6 6 6 6 6 6 6 6 6 6 6 6 6 5 5 5
6 6 6 7 7 6 8 8 8 7 7 8 8 9 8 8 7 7 6 6 5 5 5 5 5 6 6 6 6 6 6 6 6 6 6 6 6 6 6 5 5 5 5 5
5 6 6 6 6 7 10 8 8 7 7 7 7 8 7 7 6 5 5 5 5 5 5 5 5 5 6 6 6 5 5 5 5 5 5 5 5 5 5 5 5 5 4 4
5 6 6 6 7 8 8 6 6 6 7 7 6 7 6 5 5 6 5 5 5 5 5 5 5 5 5 5 5 5 5 5 5 5 5 5 5 5 5 4 4 4 4 4
3 5 5 5 6 7 9 6 5 7 7 6 5 6 5 5 7 7 5 5 5 4 5 5 5 5 5 5 5 5 5 5 4 4 4 4 4 4 4 4 4 4 4 4
3 4 4 5 6 7 7 4 5 7 8 5 4 4 4 5 6 5 4 4 4 4 4 4 4 4 4 4 4 4 4 4 4 4 4 4 4 3 3 3 3 3 3 3
4 4 4 5 5 6 5 4 6 6 4 4 4 4 3 3 3 3 3 3 3 3 3 3 3 3 3 3 3 3 3 3 3 3 3 3 3 3 3 3 3 3 3 2
5 6 6 6 6 5 4 4 4 4 4 3 3 3 3 3 3 3 3 3 3 3 3 3 3 3 3 3 3 3 3 3 3 3 3 3 3 2 2 2 2 2 2 2
4 3 4 4 4 4 3 3 3 3 3 3 3 2 2 2 2 2 2 2 2 2 2 2 2 2 2 2 2 2 2 2 2 2 2 2 2 2 2 2 1 1 1 1
4 3 3 3 3 3 3 3 3 3 3 2 2 2 2 2 2 2 2 2 2 2 2 1 1 1 1 1 2 1 1 1 1 1 1 1 1 1 1 1 1 1 1 1
2 2 3 4 4 3 3 3 3 2 2 2 2 2 2 2 1 1 1 1 1 1 1 1 1 1 1 1 1 1 1 1 1 1 1 0 0 0 0 0 0 0 0 0
Wind_Speed
1 1 2 3 3 5 6 7 10 10 7 7 9 12 12 8 5 5 5 4 4 3 2 1 1 2 3 3 3 5 5 6 6 5 5 4 3 3 3 3 5 5 5 5
2 3 4 3 3 4 6 8 9 8 6 6 9 12 8 4 3 4 3 3 4 2 1 1 2 3 3 3 3 4 4 5 6 5 4 4 3 3 3 3 4 4 4 4
4 2 1 3 3 4 6 6 8 9 10 5 7 5 2 3 2 2 3 3 3 2 3 2 3 3 3 4 4 4 5 5 5 6 5 5 4 3 2 3 3 3 4 4
4 3 3 4 4 5 6 4 7 9 7 4 5 4 3 5 4 4 3 3 3 2 3 3 4 4 4 4 4 5 5 6 6 5 5 6 4 4 3 3 3 4 4 4
3 2 3 4 4 4 5 5 6 7 5 4 3 4 4 4 5 5 5 4 3 2 2 3 4 5 5 5 4 5 5 6 6 6 6 6 4 3 3 4 5 4 3 4
5 2 3 4 3 4 5 4 3 3 3 3 2 3 3 3 5 6 5 4 3 1 2 3 4 4 4 4 4 5 6 6 6 6 6 6 6 5 5 5 5 4 3 3
3 3 2 2 2 2 2 3 2 2 2 3 1 3 4 3 4 5 6 4 3 2 1 2 4 4 4 4 5 5 7 6 6 7 6 6 6 6 7 6 6 5 4 3
3 3 2 2 2 2 1 2 2 3 4 4 2 3 3 3 3 4 5 4 3 2 0 2 3 4 5 5 5 6 6 6 6 6 6 5 5 4 4 5 5 5 4 3
3 4 1 1 2 2 1 1 2 2 3 4 4 3 3 1 4 4 5 4 3 3 1 1 3 4 5 5 5 6 6 6 6 6 6 5 5 5 5 5 5 4 4 4
3 5 2 1 2 1 2 2 2 2 2 4 5 4 2 3 5 5 6 5 4 3 2 1 1 3 3 4 4 5 6 6 6 6 5 4 5 5 5 4 5 5 6 5
4 4 2 2 4 4 3 3 3 2 3 3 4 2 1 2 4 4 5 5 5 4 3 2 1 1 2 3 4 4 4 5 5 5 5 5 5 5 5 5 5 5 5 6
4 3 5 4 1 2 4 5 5 3 3 4 4 4 2 1 3 4 5 5 5 4 3 2 1 0 1 2 3 4 4 5 5 5 5 6 5 5 5 5 5 5 5 6
4 4 4 2 2 3 4 5 6 4 3 5 5 4 2 1 3 4 5 5 5 4 3 2 2 1 1 2 3 4 5 5 5 5 6 6 6 6 7 6 6 6 6 6
4 5 8 9 5 3 6 7 8 7 6 7 9 9 5 4 5 5 5 5 4 4 3 3 2 1 1 2 3 3 4 5 5 6 6 6 7 7 7 6 6 6 6 6
5 7 9 11 9 7 9 11 12 13 12 10 10 10 9 6 5 5 4 3 3 3 3 3 3 3 2 1 2 3 4 4 5 6 6 7 6 6 6 6 6 6 6 6
5 5 4 8 8 8 11 13 13 14 13 14 13 12 8 6 3 3 3 2 3 3 4 4 4 4 3 3 3 3 3 4 5 6 6 5 5 5 6 6 6 6 6 6
6 5 4 6 4 6 11 11 12 9 9 10 12 9 3 3 3 3 3 2 3 3 4 4 4 4 4 4 4 3 3 3 4 5 5 5 5 6 6 6 6 7 7 7
8 7 4 4 3 9 5 2 7 9 8 10 9 6 4 4 4 3 3 2 3 4 5 5 5 5 4 4 3 3 2 3 3 4 4 5 5 6 5 6 6 7 6 7
9 7 5 4 7 9 5 3 5 6 6 6 8 7 4 2 2 2 1 3 4 5 5 5 5 5 5 4 3 2 2 2 3 4 5 5 5 5 5 6 7 7 6 7
6 7 6 6 6 7 2 2 2 3 5 1 4 4 2 2 2 2 3 4 5 5 5 5 5 5 4 4 3 2 2 3 4 4 4 4 5 5 6 6 6 6 6 6
7 7 10 10 9 7 1 2 4 5 2 2 1 2 3 3 3 4 4 4 4 5 5 5 5 4 4 4 3 3 3 4 4 4 4 4 5 6 6 6 5 5 5 6
10 9 9 8 9 8 3 5 5 1 2 0 1 2 3 4 4 4 4 4 4 4 5 4 4 4 5 4 3 3 4 5 4 4 4 4 5 5 4 5 5 5 5 6
9 8 6 8 7 0 4 3 1 1 1 2 2 3 4 4 4 5 4 4 4 5 5 4 4 5 5 5 4 5 6 5 4 4 5 5 5 5 4 5 5 5 5 5
5 3 4 4 5 3 2 2 1 1 2 2 3 3 4 4 4 5 4 5 5 5 5 5 5 5 6 6 5 6 6 5 5 5 5 5 5 4 4 4 4 5 5 6
4 4 4 6 4 3 4 4 3 3 2 2 3 3 4 4 5 5 4 5 5 5 5 5 5 6 7 7 7 6 6 5 5 5 5 5 5 5 4 5 5 6 7 7
6 6 6 6 5 5 5 4 3 3 3 3 4 4 4 4 5 5 5 5 5 5 5 5 5 6 7 7 7 6 6 5 5 5 5 4 4 4 4 5 5 6 7 8
Wind_Direction
339 266 296 301 267 276 289 290 297 300 307 303 289 293 302 311 302 297 297 290 282 269 254 221 174 158 143 128 139 141 140 138 139 136 136 137 143 131 119 113 118 123 127 139
234 259 276 276 257 253 269 288 300 306 318 303 298 299 304 311 304 302 305 299 292 276 250 191 158 150 155 156 147 130 138 142 142 141 137 134 136 129 118 118 111 115 127 139
248 296 289 247 270 273 275 274 295 304 315 286 300 298 334 347 319 317 318 309 295 260 235 204 167 164 162 161 163 157 150 147 142 135 127 118 117 121 120 123 122 114 129 136
253 262 254 260 271 277 288 279 281 295 311 318 329 314 335 342 342 344 336 327 309 278 228 204 180 173 175 170 162 159 155 147 144 143 144 149 157 160 160 149 141 127 125 133
257 246 251 261 275 258 284 303 279 279 283 292 304 287 309 341 338 338 339 335 326 285 236 207 189 178 172 161 159 156 156 154 150 153 157 164 163 156 146 143 137 130 124 127
264 251 251 268 275 243 280 284 255 239 252 285 310 284 309 342 328 332 337 336 325 311 243 204 177 170 158 155 155 158 166 163 161 166 170 174 167 165 159 157 153 148 140 137
276 228 220 240 272 206 289 304 306 288 281 298 331 262 274 322 326 320 326 330 330 331 247 194 175 177 168 167 169 172 172 166 170 175 175 177 176 177 175 172 168 164 160 160
290 269 210 215 247 272 253 305 312 308 304 307 279 266 280 348 334 326 329 335 337 348 320 206 182 184 181 180 177 179 174 174 177 178 179 177 178 183 182 181 175 171 167 168
255 266 99 246 261 241 208 210 301 274 287 280 273 277 279 8 359 0 359 2 355 347 337 249 196 189 187 185 184 183 178 179 182 184 184 180 183 189 186 181 178 176 173 173
238 265 250 272 206 211 279 182 192 236 288 286 283 271 276 324 349 355 357 355 348 347 336 305 233 194 190 190 189 185 185 186 184 184 185 186 189 191 190 184 187 188 183 179
223 247 261 219 215 221 179 187 215 226 262 270 288 285 59 315 336 336 343 344 343 338 332 327 306 215 181 181 180 185 189 187 183 187 187 190 192 192 193 195 197 197 193 188
204 232 259 246 233 261 232 217 203 233 241 239 268 275 79 330 337 336 346 352 349 350 342 340 347 308 188 185 183 188 194 198 194 194 195 197 197 197 203 207 204 201 201 196
175 214 262 240 205 197 224 219 212 226 235 225 237 255 104 354 346 341 344 351 353 357 2 7 16 360 258 212 200 198 201 204 200 197 199 200 201 203 209 211 207 204 203 199
199 225 236 251 269 216 240 230 212 205 223 235 238 260 275 302 316 328 336 342 348 352 354 0 352 336 289 237 216 213 215 210 201 197 201 207 210 212 214 213 209 207 207 205
207 241 246 262 268 252 250 243 224 219 229 242 252 255 269 283 294 307 319 329 338 346 347 344 335 327 318 294 241 223 225 219 208 205 209 216 216 213 213 214 214 213 213 215
208 238 246 260 251 253 258 250 234 230 237 245 258 265 273 283 282 288 301 314 319 328 332 331 327 323 314 300 282 257 238 226 218 219 222 224 221 215 215 217 216 214 215 216
196 203 223 256 262 274 258 240 219 217 220 223 237 249 266 269 273 284 295 307 318 324 327 325 320 312 306 298 287 276 268 245 227 229 231 229 224 219 217 214 214 216 219 218
196 204 223 252 252 243 255 194 205 217 233 225 232 242 247 262 277 287 292 302 319 327 327 325 322 318 313 306 295 286 277 253 240 239 237 232 227 225 219 216 219 221 221 222
208 201 209 216 243 263 263 192 189 209 246 229 229 249 269 287 271 267 352 319 311 317 318 319 318 316 314 310 304 293 283 270 259 254 249 239 228 228 225 226 227 226 224 226
201 211 216 216 231 244 256 146 177 181 232 201 218 246 235 186 242 274 334 319 319 323 323 323 323 322 316 313 308 295 287 278 269 264 259 251 239 234 235 236 236 233 230 233
182 202 217 224 234 255 274 119 153 203 238 99 198 240 208 226 278 309 312 311 314 319 320 320 320 318 312 312 303 285 286 282 282 277 266 254 245 241 241 240 236 233 232 235
188 193 205 210 224 241 148 149 189 236 61 96 308 279 257 280 303 300 297 299 305 312 316 317 316 315 317 314 299 292 293 295 295 286 270 260 252 245 240 238 238 235 231 233
210 208 204 205 219 321 156 169 143 96 270 302 302 288 275 276 288 293 294 295 298 302 307 310 310 311 316 315 303 294 298 300 292 280 270 265 259 249 239 233 233 234 231 233
227 224 212 229 245 243 219 218 278 300 283 294 291 284 274 274 285 291 291 294 296 300 304 307 306 305 307 309 302 296 299 296 287 278 273 268 259 251 242 237 233 232 233 235
235 190 217 244 259 273 241 227 243 270 279 290 293 289 280 277 283 287 290 293 295 298 300 298 294 294 297 303 303 304 303 296 284 279 276 270 260 254 247 241 239 238 240 239
218 213 222 246 244 246 259 256 269 273 279 288 302 308 302 284 284 288 288 289 290 292 295 293 293 294 297 300 301 304 301 291 283 280 275 269 263 259 254 253 257 247 248 252
Height
1528 1526 1523 1522 1523 1522 1520 1518 1514 1510 1510 1509 1502 1497 1493 1493 1492 1490 1489 1488 1487 1486 1486 1486 1485 1485 1486 1487 1489 1490 1492 1493 1495 1497 1499 1501 1503 1505 1507 1510 1512 1514 1516 1518
1525 1523 1523 1524 1524 1523 1520 1516 1511 1508 1508 1507 1500 1494 1490 1490 1490 1489 1488 1486 1486 1485 1485 1484 1484 1485 1485 1487 1488 1489 1491 1493 1494 1497 1498 1500 1503 1505 1506 1508 1511 1512 1514 1516
1522 1522 1523 1523 1521 1519 1516 1515 1512 1510 1507 1504 1501 1489 1487 1488 1488 1488 1487 1486 1485 1484 1483 1483 1483 1483 1485 1486 1488 1489 1491 1492 1494 1496 1498 1500 1502 1504 1505 1507 1510 1511 1513 1515
1522 1522 1523 1520 1518 1518 1512 1513 1513 1512 1507 1501 1503 1494 1484 1486 1485 1486 1485 1484 1483 1483 1483 1483 1482 1483 1484 1486 1488 1490 1491 1492 1494 1496 1497 1499 1501 1503 1505 1507 1509 1510 1512 1513
1518 1521 1520 1518 1517 1517 1513 1514 1513 1510 1507 1504 1500 1498 1486 1485 1484 1483 1484 1484 1483 1482 1482 1482 1482 1482 1484 1485 1487 1489 1491 1492 1494 1496 1497 1499 1501 1503 1504 1506 1508 1509 1511 1512
1520 1521 1520 1517 1517 1517 1515 1513 1510 1509 1505 1501 1500 1499 1487 1484 1485 1484 1484 1484 1483 1482 1481 1481 1481 1482 1483 1485 1485 1487 1490 1491 1493 1496 1497 1499 1501 1502 1503 1505 1507 1508 1509 1510
1516 1517 1518 1518 1515 1515 1514 1508 1503 1499 1497 1493 1499 1498 1489 1485 1486 1486 1485 1484 1482 1481 1481 1480 1480 1481 1482 1483 1484 1486 1489 1490 1493 1494 1496 1498 1500 1501 1503 1505 1506 1507 1508 1509
1515 1513 1515 1516 1514 1512 1512 1509 1507 1504 1496 1490 1495 1492 1485 1486 1487 1486 1485 1484 1482 1481 1480 1480 1480 1481 1482 1483 1484 1486 1487 1489 1491 1493 1494 1496 1498 1500 1502 1503 1504 1505 1506 1508
1514 1511 1515 1516 1515 1514 1510 1510 1510 1508 1507 1502 1488 1486 1483 1485 1485 1485 1484 1483 1482 1481 1480 1480 1480 1480 1481 1482 1484 1485 1487 1489 1490 1492 1493 1495 1497 1498 1500 1501 1502 1503 1505 1506
1515 1513 1513 1515 1516 1515 1513 1511 1511 1508 1503 1495 1485 1484 1483 1483 1484 1484 1483 1483 1482 1481 1480 1480 1480 1480 1481 1482 1483 1484 1486 1488 1489 1490 1492 1494 1495 1497 1498 1499 1500 1501 1502 1503
1516 1514 1512 1513 1510 1508 1512 1512 1508 1506 1503 1497 1489 1483 1483 1484 1485 1485 1484 1483 1481 1480 1479 1479 1479 1479 1479 1481 1481 1482 1484 1485 1487 1488 1490 1492 1493 1494 1496 1497 1498 1498 1499 1500
1515 1513 1508 1507 1510 1511 1507 1505 1505 1503 1502 1500 1494 1487 1485 1486 1486 1486 1484 1483 1481 1480 1479 1478 1478 1478 1478 1479 1480 1481 1482 1484 1485 1486 1488 1489 1491 1492 1493 1494 1495 1495 1496 1497
1514 1512 1507 1502 1508 1510 1507 1505 1504 1503 1502 1499 1494 1485 1486 1486 1485 1485 1484 1483 1481 1480 1479 1478 1478 1477 1477 1477 1478 1479 1481 1482 1483 1484 1485 1486 1488 1489 1490 1490 1491 1492 1493 1493
1511 1507 1503 1497 1492 1498 1501 1502 1503 1502 1500 1493 1489 1482 1482 1483 1483 1484 1483 1482 1481 1480 1478 1477 1477 1477 1476 1476 1477 1477 1478 1479 1480 1481 1482 1483 1484 1485 1486 1487 1488 1488 1489 1490
1509 1504 1502 1499 1498 1499 1497 1496 1498 1497 1491 1488 1482 1483 1480 1481 1483 1483 1482 1481 1480 1479 1478 1477 1476 1475 1475 1474 1474 1474 1475 1476 1477 1478 1479 1479 1481 1482 1482 1483 1484 1484 1485 1486
1506 1504 1504 1501 1498 1497 1494 1490 1491 1491 1489 1486 1483 1481 1479 1481 1482 1482 1481 1480 1479 1478 1477 1476 1475 1474 1473 1473 1473 1472 1472 1473 1473 1474 1474 1475 1476 1477 1478 1479 1479 1480 1481 1481
1503 1503 1502 1494 1495 1495 1485 1479 1482 1483 1482 1481 1478 1476 1478 1480 1480 1480 1479 1479 1478 1477 1476 1475 1474 1473 1472 1471 1471 1471 1471 1470 1470 1470 1471 1471 1472 1472 1473 1474 1475 1476 1476 1477
1498 1499 1498 1495 1496 1490 1471 1475 1475 1476 1477 1478 1475 1476 1477 1478 1478 1478 1477 1477 1476 1475 1474 1473 1472 1471 1470 1470 1469 1468 1468 1467 1467 1467 1467 1467 1468 1468 1469 1470 1470 1471 1472 1472
1494 1495 1495 1494 1486 1474 1472 1475 1476 1476 1474 1475 1475 1475 1476 1477 1476 1475 1475 1475 1474 1473 1472 1471 1470 1469 1468 1467 1467 1466 1465 1464 1463 1463 1463 1463 1464 1464 1464 1465 1465 1466 1467 1467
1493 1493 1492 1489 1484 1475 1466 1472 1473 1475 1471 1473 1473 1473 1474 1475 1473 1473 1474 1473 1472 1471 1470 1469 1468 1467 1466 1465 1464 1463 1462 1461 1460 1460 1459 1459 1459 1459 1460 1460 1461 1461 1462 1462
1490 1490 1487 1482 1478 1467 1469 1472 1473 1472 1467 1472 1471 1472 1473 1473 1472 1473 1471 1471 1470 1469 1468 1467 1466 1464 1463 1462 1461 1459 1458 1458 1457 1456 1456 1455 1455 1455 1455 1456 1456 1456 1456 1457
1475 1477 1479 1477 1477 1470 1469 1471 1470 1468 1469 1469 1470 1470 1470 1470 1470 1469 1469 1468 1467 1467 1466 1464 1463 1461 1460 1459 1458 1456 1455 1454 1453 1452 1451 1451 1451 1451 1451 1451 1451 1451 1451 1451
1468 1466 1465 1467 1466 1465 1466 1466 1467 1468 1468 1468 1468 1468 1468 1468 1467 1467 1466 1465 1464 1464 1462 1461 1460 1458 1457 1456 1455 1453 1452 1450 1449 1448 1447 1446 1446 1446 1445 1445 1445 1446 1446 1446
1466 1467 1466 1466 1464 1465 1465 1465 1466 1467 1467 1467 1467 1466 1466 1465 1464 1464 1463 1462 1461 1460 1459 1458 1456 1455 1454 1453 1451 1450 1448 1446 1445 1443 1442 1441 1441 1440 1440 1440 1440 1440 1440 1440
1463 1465 1464 1463 1463 1464 1463 1464 1464 1464 1464 1465 1464 1464 1463 1462 1462 1461 1460 1459 1458 1457 1456 1455 1453 1452 1450 1449 1447 1446 1444 1442 1441 1439 1438 1437 1437 1436 1435 1435 1435 1435 1435 1435
1461 1462 1461 1459 1460 1461 1461 1462 1462 1462 1462 1462 1461 1461 1460 1460 1459 1458 1457 1456 1455 1454 1453 1451 1450 1448 1447 1445 1444 1442 1440 1438 1437 1435 1434 1433 1432 1432 1431 1430 1430 1429 1430 1429